FW8037 Weather Reports


Display with metric or nautical units.
time (UTC)temp
F
wind
direction
speed
MPH
gust
MPH
rain 1hr
in
rain 24hr
in
rain mn
in
humidity
%
barometer
mb
20260906111112 67 224 0.0 0.0 0.00 0.00 0.00 99 1019.4
20260906110612 67 213 0.0 0.0 0.00 0.00 0.00 99 1019.6
20260906110106 67 217 0.0 0.0 0.00 0.00 0.00 99 1019.5
20260906105600 67 124 1.0 1.0 0.00 0.00 0.00 99 1019.3
20260906105057 67 127 0.0 1.0 0.00 0.00 0.00 99 1019.4
20260906104555 67 148 1.0 1.0 0.00 0.00 0.00 99 1019.3
20260906104050 66 151 0.0 0.0 0.00 0.00 0.00 99 1019.5
20260906103548 66 212 0.0 0.0 0.00 0.00 0.00 99 1019.8
20260906103044 66 213 0.0 0.0 0.00 0.00 0.00 99 1019.5
20260906102543 66 168 0.0 0.0 0.00 0.00 0.00 99 1019.6
20260906102039 66 265 0.0 0.0 0.00 0.00 0.00 99 1019.6
20260906101533 66 207 0.0 0.0 0.00 0.00 0.00 99 1019.6
20260906101028 66 232 0.0 0.0 0.00 0.00 0.00 99 1019.3
20260906100523 66 231 0.0 0.0 0.00 0.00 0.00 99 1019.5
20260906100018 66 228 0.0 0.0 0.00 0.00 0.00 99 1019.5
20260906095513 66 221 0.0 0.0 0.00 0.00 0.00 99 1019.6
20260906095008 67 242 0.0 0.0 0.00 0.00 0.00 99 1019.2
20260906094507 67 241 0.0 0.0 0.00 0.00 0.00 99 1019.1
20260906094003 67 235 0.0 0.0 0.00 0.00 0.00 99 1019.0
20260906093459 67 238 0.0 0.0 0.00 0.00 0.00 99 1019.0
20260906092954 67 236 0.0 0.0 0.00 0.00 0.00 99 1019.1
20260906092454 67 240 0.0 0.0 0.00 0.00 0.00 99 1019.0
20260906091949 67 240 0.0 0.0 0.00 0.00 0.00 99 1019.2
20260906091445 67 240 0.0 0.0 0.00 0.00 0.00 99 1019.0
20260906090941 67 227 0.0 0.0 0.00 0.00 0.00 99 1019.1
20260906090436 67 237 0.0 0.0 0.00 0.00 0.00 99 1019.1
20260906085930 67 246 0.0 0.0 0.00 0.00 0.00 99 1019.3
20260906085429 67 238 0.0 0.0 0.00 0.00 0.00 99 1018.9
20260906084928 67 238 0.0 0.0 0.00 0.00 0.00 99 1018.9
20260906084424 68 237 0.0 0.0 0.00 0.00 0.00 99 1018.6
20260906083923 68 127 0.0 0.0 0.00 0.00 0.00 99 1018.9
20260906083418 68 258 0.0 0.0 0.00 0.00 0.00 99 1018.9
20260906082917 68 232 0.0 0.0 0.00 0.00 0.00 99 1018.6
20260906082413 68 233 0.0 0.0 0.00 0.00 0.00 99 1018.5
20260906081909 68 237 0.0 0.0 0.00 0.00 0.00 99 1018.5
20260906081404 68 214 0.0 1.0 0.00 0.00 0.00 99 1018.5
20260906080900 69 227 0.0 0.0 0.00 0.00 0.00 99 1018.6
20260906080357 69 193 2.0 2.0 0.00 0.00 0.00 99 1018.6
20260906075855 69 199 0.0 0.0 0.00 0.00 0.00 99 1018.4
20260906075351 69 100 1.0 1.0 0.00 0.00 0.00 99 1018.3
20260906074846 69 87 1.0 2.0 0.00 0.00 0.00 99 1018.4
20260906074346 69 69 1.0 1.0 0.00 0.00 0.00 99 1018.8
20260906073844 69 116 1.0 1.0 0.00 0.00 0.00 99 1018.6
20260906073339 69 195 0.0 0.0 0.00 0.00 0.00 99 1018.5
20260906072836 69 56 3.0 6.0 0.00 0.00 0.00 99 1018.2
20260906072332 69 90 5.0 8.0 0.00 0.00 0.00 99 1018.5
20260906071827 69 82 2.0 5.0 0.00 0.00 0.00 99 1018.5
20260906071322 69 91 2.0 3.0 0.00 0.00 0.00 99 1018.6
20260906070818 70 87 4.0 5.0 0.00 0.00 0.00 99 1018.4
20260906070313 70 77 3.0 5.0 0.00 0.00 0.00 99 1018.5
20260906065808 70 116 3.0 5.0 0.00 0.00 0.00 99 1018.8
20260906065305 70 347 0.0 1.0 0.00 0.00 0.00 99 1019.0
20260906064759 70 65 1.0 2.0 0.00 0.00 0.00 99 1018.8
20260906064255 70 58 1.0 2.0 0.00 0.00 0.00 99 1018.6
20260906063749 70 69 2.0 3.0 0.00 0.00 0.00 99 1018.9
20260906063245 70 58 1.0 2.0 0.00 0.00 0.00 99 1019.0
20260906062740 70 84 1.0 3.0 0.00 0.00 0.00 99 1019.0
20260906062239 70 81 3.0 5.0 0.00 0.00 0.00 99 1019.1
20260906061735 70 29 1.0 1.0 0.00 0.00 0.00 99 1019.3
20260906061231 70 2 0.0 0.0 0.00 0.00 0.00 99 1019.1
20260906060726 70 89 3.0 5.0 0.00 0.00 0.00 99 1018.9
20260906060224 70 39 2.0 2.0 0.00 0.00 0.00 99 1019.1
20260906055719 70 62 0.0 1.0 0.00 0.00 0.00 99 1019.2
20260906055214 70 314 0.0 0.0 0.00 0.00 0.00 99 1019.2
20260906054709 70 50 2.0 2.0 0.00 0.00 0.00 99 1019.0
20260906054204 70 88 0.0 1.0 0.00 0.00 0.00 99 1019.2
20260906053701 70 329 0.0 0.0 0.00 0.00 0.00 99 1019.0
20260906053156 70 249 0.0 0.0 0.00 0.00 0.00 99 1018.8
20260906052651 70 221 0.0 0.0 0.00 0.00 0.00 99 1018.9
20260906052148 71 55 1.0 2.0 0.00 0.00 0.00 99 1019.0
20260906051644 71 93 0.0 1.0 0.00 0.00 0.00 99 1018.8
20260906051143 71 108 1.0 1.0 0.00 0.00 0.00 99 1018.9
20260906050639 71 231 0.0 0.0 0.00 0.00 0.00 99 1018.8
20260906050134 71 71 0.0 0.0 0.00 0.00 0.00 99 1018.6
20260906045632 71 130 0.0 1.0 0.00 0.00 0.00 99 1018.6
20260906045128 71 6 0.0 1.0 0.00 0.00 0.00 99 1018.9
20260906044624 71 140 0.0 0.0 0.00 0.00 0.00 99 1018.8
20260906044119 72 135 1.0 1.0 0.00 0.00 0.00 99 1018.6
20260906043615 72 108 1.0 2.0 0.00 0.00 0.00 99 1018.9
20260906043110 72 184 0.0 0.0 0.00 0.00 0.00 99 1018.9
20260906042609 72 210 0.0 0.0 0.00 0.00 0.00 99 1018.6
20260906042104 72 112 1.0 1.0 0.00 0.00 0.00 99 1018.3
20260906041600 72 138 1.0 2.0 0.00 0.00 0.00 99 1018.6
20260906041055 72 291 0.0 0.0 0.00 0.00 0.00 99 1018.5
20260906040550 72 161 0.0 0.0 0.00 0.00 0.00 99 1018.5
20260906040045 72 35 1.0 2.0 0.00 0.00 0.00 99 1018.6
20260906035541 72 27 0.0 0.0 0.00 0.00 0.00 99 1018.4
20260906035037 72 62 2.0 2.0 0.00 0.00 0.00 99 1018.6
20260906034536 72 148 0.0 0.0 0.00 0.00 0.00 99 1018.4
20260906034031 72 123 1.0 2.0 0.00 0.00 0.00 99 1018.4
20260906033526 73 38 0.0 1.0 0.00 0.00 0.00 99 1018.4
20260906033022 73 33 0.0 0.0 0.00 0.00 0.00 99 1018.4
20260906032519 73 57 0.0 0.0 0.00 0.00 0.00 99 1018.5
20260906032018 73 98 1.0 2.0 0.00 0.00 0.00 99 1018.6
20260906031514 73 40 0.0 0.0 0.00 0.00 0.00 99 1018.6
20260906031003 73 71 1.0 1.0 0.00 0.00 0.00 99 1018.5
20260906030457 73 264 0.0 0.0 0.00 0.00 0.00 98 1018.3
20260906025952 73 213 0.0 1.0 0.00 0.00 0.00 98 1018.4
20260906025451 73 61 0.0 0.0 0.00 0.00 0.00 98 1018.3
20260906024950 73 73 1.0 3.0 0.00 0.00 0.00 98 1018.2
20260906024445 73 354 0.0 0.0 0.00 0.00 0.00 98 1018.0
20260906023945 73 353 0.0 0.0 0.00 0.00 0.00 98 1018.2
20260906023441 73 23 0.0 0.0 0.00 0.00 0.00 97 1018.1
20260906022936 73 139 0.0 0.0 0.00 0.00 0.00 97 1017.9
20260906022431 74 67 2.0 3.0 0.00 0.00 0.00 97 1017.9
20260906021926 74 133 0.0 0.0 0.00 0.00 0.00 97 1017.8
20260906021426 74 124 0.0 0.0 0.00 0.00 0.00 97 1017.9
20260906020920 74 92 1.0 1.0 0.00 0.00 0.00 97 1017.9
20260906020414 74 112 2.0 2.0 0.00 0.00 0.00 96 1017.6
20260906015904 74 319 0.0 0.0 0.00 0.00 0.00 96 1017.6
20260906015403 74 78 0.0 1.0 0.00 0.00 0.00 96 1017.5
20260906014902 74 90 0.0 0.0 0.00 0.00 0.00 96 1017.4
20260906014357 74 276 0.0 0.0 0.00 0.00 0.00 96 1017.5
20260906013853 74 311 0.0 0.0 0.00 0.00 0.00 96 1017.4
20260906013349 74 343 0.0 0.0 0.00 0.00 0.00 96 1017.4
20260906012844 74 300 0.0 0.0 0.00 0.00 0.00 96 1017.4
20260906012339 75 306 0.0 1.0 0.00 0.00 0.00 96 1017.2
20260906011838 75 43 0.0 1.0 0.00 0.00 0.00 96 1017.2
20260906011333 75 308 0.0 0.0 0.00 0.00 0.00 96 1017.2
20260906010829 75 311 0.0 0.0 0.00 0.00 0.00 95 1017.2
20260906010326 75 39 1.0 1.0 0.00 0.00 0.00 95 1017.1
20260906005821 76 24 0.0 0.0 0.00 0.00 0.00 95 1017.0
20260906005320 76 4 0.0 0.0 0.00 0.00 0.00 95 1017.1
20260906004818 76 97 1.0 2.0 0.00 0.00 0.00 94 1017.1
20260906004312 77 37 0.0 0.0 0.00 0.00 0.00 94 1017.1
20260906003807 77 17 0.0 0.0 0.00 0.00 0.00 95 1016.9
20260906003303 77 17 1.0 2.0 0.00 0.00 0.00 94 1017.1
20260906002758 78 81 1.0 1.0 0.00 0.00 0.00 94 1016.8
20260906002257 78 48 2.0 2.0 0.00 0.00 0.00 94 1017.0
20260906001753 78 356 0.0 1.0 0.00 0.00 0.00 94 1017.2
20260906001248 78 49 0.0 0.0 0.00 0.00 0.00 93 1016.8
20260906000743 78 17 0.0 0.0 0.00 0.00 0.00 93 1017.0
20260906000238 79 28 0.0 0.0 0.00 0.00 0.00 93 1016.8
20260905235733 79 37 0.0 1.0 0.00 0.00 0.00 92 1016.9
20260905235232 79 66 0.0 1.0 0.00 0.00 0.00 92 1016.8
20260905234728 79 114 1.0 2.0 0.00 0.00 0.00 91 1017.0
20260905234223 80 116 0.0 1.0 0.00 0.00 0.00 91 1016.7
20260905233719 79 119 2.0 2.0 0.00 0.00 0.00 91 1016.6
20260905233218 79 22 1.0 1.0 0.00 0.00 0.00 91 1016.8
20260905232713 79 37 3.0 5.0 0.00 0.00 0.00 91 1016.8
20260905232209 80 104 2.0 3.0 0.00 0.00 0.00 90 1016.8
20260905231704 80 37 0.0 1.0 0.00 0.00 0.00 90 1016.8
20260905231200 80 120 3.0 5.0 0.00 0.00 0.00 90 1016.8
20260905230655 80 98 5.0 8.0 0.00 0.00 0.00 90 1016.7
20260905230153 81 65 1.0 2.0 0.00 0.00 0.00 89 1016.6
20260905225653 81 43 0.0 0.0 0.00 0.00 0.00 89 1016.6
20260905225148 81 147 1.0 1.0 0.00 0.00 0.00 88 1016.6
20260905224648 81 122 2.0 2.0 0.00 0.00 0.00 88 1016.5
20260905224148 81 53 3.0 3.0 0.00 0.00 0.00 88 1016.2
20260905223644 82 47 4.0 7.0 0.00 0.00 0.00 87 1016.2
20260905223142 82 115 3.0 3.0 0.00 0.00 0.00 86 1016.6
20260905222637 82 55 2.0 3.0 0.00 0.00 0.00 87 1016.6
20260905222131 83 0 1.0 1.0 0.00 0.00 0.00 86 1016.7
20260905221627 83 41 1.0 1.0 0.00 0.00 0.00 85 1016.5
20260905221123 83 82 1.0 3.0 0.00 0.00 0.00 86 1016.4
20260905220619 83 292 1.0 2.0 0.00 0.00 0.00 86 1016.6
20260905220115 83 65 3.0 3.0 0.00 0.00 0.00 86 1016.3
20260905215614 83 314 0.0 1.0 0.00 0.00 0.00 86 1016.6
20260905215110 82 251 0.0 0.0 0.00 0.00 0.00 86 1016.4
20260905214606 82 2 0.0 0.0 0.00 0.00 0.00 86 1016.3
20260905214106 83 87 1.0 2.0 0.00 0.00 0.00 86 1016.1
20260905213601 84 113 3.0 5.0 0.00 0.00 0.00 84 1016.0
20260905213057 84 346 1.0 1.0 0.00 0.00 0.00 83 1016.0
20260905212557 84 305 1.0 2.0 0.00 0.00 0.00 84 1015.9
20260905212056 84 355 3.0 3.0 0.00 0.00 0.00 83 1016.0
20260905211552 84 62 1.0 1.0 0.00 0.00 0.00 83 1016.0
20260905211047 84 29 2.0 3.0 0.00 0.00 0.00 84 1015.9
20260905210543 84 340 4.0 6.0 0.00 0.00 0.00 84 1016.0
20260905210038 84 79 6.0 7.0 0.00 0.00 0.00 84 1016.0
20260905205536 84 45 5.0 7.0 0.00 0.00 0.00 85 1016.1
20260905205031 84 22 5.0 8.0 0.00 0.00 0.00 85 1015.9
20260905204526 84 71 1.0 1.0 0.00 0.00 0.00 86 1016.4
20260905204021 85 269 1.0 1.0 0.00 0.00 0.00 85 1016.3
20260905203521 84 81 4.0 7.0 0.00 0.00 0.00 85 1016.3
20260905203016 83 110 2.0 3.0 0.00 0.00 0.00 87 1016.3
20260905202511 83 71 1.0 1.0 0.00 0.00 0.00 87 1016.3
20260905202007 83 22 1.0 1.0 0.00 0.00 0.00 88 1016.6
20260905201502 83 196 1.0 2.0 0.00 0.00 0.00 87 1016.9
20260905201002 83 39 3.0 8.0 0.00 0.00 0.00 88 1016.7
20260905200457 83 111 4.0 6.0 0.00 0.00 0.00 88 1016.9
20260905195956 82 84 2.0 3.0 0.00 0.00 0.00 88 1017.0
20260905195451 83 113 3.0 5.0 0.00 0.00 0.00 86 1017.1
20260905194947 82 188 0.0 1.0 0.00 0.00 0.00 88 1017.1
20260905194446 82 40 5.0 6.0 0.00 0.00 0.00 88 1017.0
20260905193941 82 18 2.0 2.0 0.00 0.00 0.00 88 1017.1
20260905193441 82 96 2.0 3.0 0.00 0.00 0.00 89 1017.1
20260905192936 83 104 10.0 14.0 0.00 0.00 0.00 88 1017.1
20260905192431 83 332 1.0 3.0 0.00 0.00 0.00 89 1016.8
20260905191926 83 355 7.0 9.0 0.00 0.00 0.00 88 1016.8
20260905191426 83 74 2.0 3.0 0.00 0.00 0.00 88 1016.8
20260905190920 84 22 3.0 5.0 0.00 0.00 0.00 87 1017.0
20260905190418 84 4 3.0 5.0 0.00 0.00 0.00 87 1017.3
20260905185916 83 273 1.0 1.0 0.00 0.00 0.00 88 1017.7
20260905185412 83 338 3.0 5.0 0.00 0.00 0.00 88 1017.7
20260905184911 83 342 2.0 3.0 0.00 0.00 0.00 88 1017.8
20260905184410 83 339 5.0 7.0 0.00 0.00 0.00 89 1017.7
20260905183909 83 11 1.0 1.0 0.00 0.00 0.00 89 1017.9
20260905183359 83 359 5.0 6.0 0.00 0.00 0.00 89 1018.0
20260905182854 84 8 7.0 9.0 0.00 0.00 0.00 88 1017.8
20260905182353 84 343 3.0 3.0 0.00 0.00 0.00 88 1017.9
20260905181849 84 283 2.0 3.0 0.00 0.00 0.00 89 1017.9
20260905181349 83 335 3.0 5.0 0.00 0.00 0.00 89 1018.1
20260905180848 83 290 2.0 3.0 0.00 0.00 0.00 89 1018.1
20260905180343 84 280 2.0 2.0 0.00 0.00 0.00 88 1018.1
20260905175837 84 346 4.0 5.0 0.00 0.00 0.00 88 1018.1
20260905175332 84 343 7.0 8.0 0.00 0.00 0.00 88 1018.1
20260905174827 84 15 3.0 3.0 0.00 0.00 0.00 88 1017.8
20260905174323 84 15 1.0 2.0 0.00 0.00 0.00 89 1018.0
20260905173818 83 323 2.0 2.0 0.00 0.00 0.00 89 1018.4
20260905173315 83 280 1.0 2.0 0.00 0.00 0.00 90 1018.3
20260905172814 83 344 3.0 3.0 0.00 0.00 0.00 89 1018.3
20260905172312 83 291 2.0 2.0 0.00 0.00 0.00 89 1018.5
20260905171809 84 343 3.0 3.0 0.00 0.00 0.00 88 1018.2
20260905171305 84 287 3.0 3.0 0.00 0.00 0.00 88 1018.5
20260905170801 83 309 1.0 1.0 0.00 0.00 0.00 88 1018.1
20260905170257 83 305 1.0 2.0 0.00 0.00 0.00 89 1018.1
20260905165756 82 336 0.0 0.0 0.00 0.00 0.00 90 1018.1
20260905165252 83 354 3.0 3.0 0.00 0.00 0.00 90 1018.0
20260905164752 83 25 1.0 2.0 0.00 0.00 0.00 90 1018.0
20260905164246 83 334 1.0 1.0 0.00 0.00 0.00 90 1018.0
20260905163742 82 352 3.0 3.0 0.00 0.00 0.00 90 1017.8
20260905163238 82 325 2.0 3.0 0.00 0.00 0.00 90 1017.9
20260905162733 82 340 2.0 2.0 0.00 0.00 0.00 90 1018.2
20260905162233 82 307 1.0 1.0 0.00 0.00 0.00 91 1018.1
20260905161723 82 337 3.0 5.0 0.00 0.00 0.00 90 1018.3
20260905161221 81 15 2.0 2.0 0.00 0.00 0.00 90 1018.2
20260905160720 81 100 2.0 2.0 0.00 0.00 0.00 90 1018.0
20260905160220 81 33 0.0 1.0 0.00 0.00 0.00 90 1018.4
20260905155714 80 311 1.0 2.0 0.00 0.00 0.00 90 1018.1
20260905155213 80 336 1.0 1.0 0.00 0.00 0.00 90 1018.2
20260905154707 79 325 0.0 1.0 0.00 0.00 0.00 91 1018.2
20260905154203 79 345 5.0 6.0 0.00 0.00 0.00 90 1018.2
20260905153659 79 332 3.0 3.0 0.00 0.00 0.00 91 1018.0
20260905153154 79 335 1.0 1.0 0.00 0.00 0.00 91 1018.1
20260905152649 79 340 2.0 3.0 0.00 0.00 0.00 91 1017.9
20260905152144 78 344 2.0 2.0 0.00 0.00 0.00 91 1018.0
20260905151638 78 312 2.0 3.0 0.00 0.00 0.00 91 1017.9
20260905151134 78 39 0.0 1.0 0.00 0.00 0.00 91 1017.9
20260905150629 78 325 3.0 3.0 0.00 0.00 0.00 91 1017.7
20260905150128 78 349 3.0 3.0 0.00 0.00 0.00 91 1017.5
20260905145626 78 4 4.0 5.0 0.00 0.00 0.00 92 1017.5
20260905145125 77 355 2.0 3.0 0.00 0.00 0.00 92 1017.4
20260905144620 77 334 1.0 2.0 0.00 0.00 0.00 93 1017.5
20260905144119 77 10 1.0 1.0 0.00 0.00 0.00 93 1017.4
20260905143614 77 355 0.0 1.0 0.00 0.00 0.00 93 1017.4
20260905143109 77 341 1.0 1.0 0.00 0.00 0.00 93 1017.4
20260905142607 76 329 1.0 1.0 0.00 0.00 0.00 94 1017.3
20260905142102 76 348 3.0 3.0 0.00 0.00 0.00 94 1017.1
20260905141601 76 338 1.0 2.0 0.00 0.00 0.00 94 1017.4
20260905141058 76 338 3.0 3.0 0.00 0.00 0.00 94 1017.1
20260905140553 76 350 3.0 3.0 0.00 0.00 0.00 94 1017.1
20260905140052 76 319 0.0 1.0 0.00 0.00 0.00 95 1017.1
20260905135548 76 331 1.0 2.0 0.00 0.00 0.00 95 1017.2
20260905135047 75 335 0.0 1.0 0.00 0.00 0.00 95 1017.0
20260905134542 75 329 0.0 0.0 0.00 0.00 0.00 95 1017.4
20260905134041 75 330 0.0 1.0 0.00 0.00 0.00 95 1017.0
20260905133536 75 332 0.0 0.0 0.00 0.00 0.00 96 1016.9
20260905133031 75 327 1.0 1.0 0.00 0.00 0.00 96 1017.2
20260905132530 74 57 0.0 0.0 0.00 0.00 0.00 96 1016.7
20260905132025 74 68 0.0 0.0 0.00 0.00 0.00 97 1017.0
20260905131521 73 19 1.0 1.0 0.00 0.00 0.00 98 1016.6
20260905131016 72 232 0.0 0.0 0.00 0.00 0.00 99 1016.7
20260905130515 72 235 0.0 0.0 0.00 0.00 0.00 99 1016.6
20260905130011 71 232 0.0 1.0 0.00 0.00 0.00 99 1016.6
20260905125505 71 226 0.0 0.0 0.00 0.00 0.00 99 1016.5
20260905125000 70 127 0.0 0.0 0.00 0.00 0.00 99 1016.2
20260905124457 70 257 0.0 0.0 0.00 0.00 0.00 99 1016.2
20260905123952 70 270 0.0 0.0 0.00 0.00 0.00 99 1016.3
20260905123449 70 270 0.0 0.0 0.00 0.00 0.00 99 1016.3
20260905122948 70 270 0.0 0.0 0.00 0.00 0.00 99 1016.2
20260905122443 70 283 0.0 0.0 0.00 0.00 0.00 99 1016.2
20260905121938 70 270 0.0 0.0 0.00 0.00 0.00 99 1016.2
20260905121434 70 277 0.0 0.0 0.00 0.00 0.00 99 1016.1
20260905120933 70 275 0.0 0.0 0.00 0.00 0.00 99 1016.2
20260905120427 69 289 0.0 0.0 0.00 0.00 0.00 99 1016.1
20260905115923 69 295 0.0 1.0 0.00 0.00 0.00 99 1016.0
20260905115421 69 337 2.0 2.0 0.00 0.00 0.00 99 1016.1
20260905114917 69 341 2.0 2.0 0.00 0.00 0.00 99 1015.9
20260905114416 70 287 1.0 1.0 0.00 0.00 0.00 99 1016.0
20260905113910 70 334 2.0 2.0 0.00 0.00 0.00 99 1015.8
20260905113405 70 336 1.0 2.0 0.00 0.00 0.00 99 1015.9
20260905112901 70 306 1.0 1.0 0.00 0.00 0.00 99 1015.6
20260905112356 70 320 1.0 1.0 0.00 0.00 0.00 99 1015.6
20260905111851 70 294 0.0 0.0 0.00 0.00 0.00 99 1015.6
20260905111350 70 282 0.0 0.0 0.00 0.00 0.00 99 1015.8